Location: Malvern Link
(52.1333°N, 2.3000°W)
Time: 10:30:36
(UTC+00:00)

USA 234 - Pass Details

Date: 18 September 2020
Orbit: 1102 x 1106 km, 123.0° (Epoch: 16 October)

Event Time Altitude Azimuth Distance (km) Brightness Sun altitude
Exits shadow 20:19:21 - 62° (ENE) 3,315 5.5 -18.9°
Reaches altitude 10° 20:20:19 10° 65° (ENE) 2,968 5.2 -19.0°
Maximum altitude 20:26:36 47° 138° (SE) 1,427 3.4 -19.9°
Drops below altitude 10° 20:32:52 10° 211° (SSW) 2,958 5.5 -20.7°
Sets 20:35:27 0° 217° (SW) 3,914 6.2 -21.0°
